Temperature
15 16 16 17 13 10 12 13 13 14 14 15 15 15 14 14 15 15 15 15 15 15 14 14 14 14 14 14 15 14 15 15 15 15 15 14 14 15 15 15 14 14 14 14 14 14 14 14 14
15 16 16 15 11 11 12 12 13 14 15 15 15 15 14 14 14 14 15 15 15 15 14 14 14 14 14 14 14 14 14 14 14 15 14 14 14 14 14 14 14 14 14 14 14 14 14 14 14
15 16 15 10 10 11 13 13 12 14 15 15 14 14 14 14 14 14 14 14 14 14 14 14 14 14 14 14 14 14 14 14 14 14 14 14 14 14 14 14 14 14 14 14 14 14 14 14 14
15 15 13 10 11 11 12 12 12 13 14 14 14 13 13 14 14 14 14 14 14 14 14 14 13 14 14 14 14 14 14 14 14 14 14 14 14 14 14 14 14 14 14 14 14 14 14 14 13
15 14 10 9 11 11 11 12 13 12 13 13 13 12 13 13 13 14 14 14 13 13 13 13 13 13 13 13 13 13 13 13 14 14 14 14 14 14 14 14 14 14 14 14 14 14 14 14 13
14 10 9 9 10 11 11 12 13 12 12 13 13 12 13 13 13 13 13 13 13 13 13 13 13 13 13 13 13 13 13 13 13 13 13 14 14 14 14 14 14 14 14 14 13 13 13 13 13
12 8 9 10 10 11 12 12 12 11 11 13 13 12 13 13 13 13 13 12 12 12 13 13 13 13 13 13 13 13 13 13 13 13 13 13 14 14 14 14 14 14 14 13 13 13 13 13 13
13 8 9 9 10 11 12 12 12 12 12 13 13 12 12 13 12 12 12 12 12 12 12 12 12 12 13 12 12 12 12 13 13 13 13 13 13 13 13 13 13 14 13 13 13 13 13 13 13
12 8 9 9 10 10 11 11 12 12 12 12 12 12 12 12 12 12 12 12 12 12 12 12 12 12 12 12 12 12 12 12 13 13 13 13 13 13 13 13 13 13 13 13 13 13 13 13 13
11 8 9 10 10 10 11 11 11 11 10 11 12 12 12 12 12 12 12 11 11 11 11 11 12 12 12 12 12 12 12 12 13 13 13 13 13 13 13 13 13 13 13 13 13 13 12 12 12
9 8 9 10 11 11 10 11 11 10 9 11 11 12 12 12 11 11 11 11 11 11 11 11 11 11 11 12 12 12 12 12 12 12 12 13 13 13 13 13 13 13 13 13 12 12 12 12 12
9 9 10 10 11 10 10 10 10 10 11 12 12 11 11 11 11 11 11 11 11 10 11 11 11 11 11 11 11 11 12 12 12 12 12 12 12 12 12 12 12 12 12 12 12 12 12 11 11
9 9 10 10 10 10 10 10 10 10 11 12 12 11 11 11 11 11 11 11 10 10 10 11 10 11 11 11 11 11 11 12 12 12 12 12 12 12 12 12 12 12 12 12 12 12 11 11 11
9 9 9 9 10 10 9 9 9 10 11 11 11 11 11 11 11 11 11 11 10 10 10 10 10 10 11 11 11 11 11 11 11 11 11 11 11 11 12 12 12 12 11 11 11 11 11 11 11
9 8 8 9 9 10 9 8 8 11 11 11 11 11 11 11 11 10 11 10 10 10 10 10 10 10 10 10 10 10 10 11 11 11 11 11 11 11 11 11 11 11 11 11 11 11 10 10 10
8 8 8 9 9 9 9 8 9 11 10 10 10 11 10 10 10 10 10 10 10 10 10 10 10 10 10 10 10 10 10 10 10 10 10 10 10 10 11 11 11 11 11 10 10 10 10 10 10
7 7 8 8 9 8 8 8 8 10 9 9 10 10 10 10 10 10 10 10 10 10 10 10 10 10 10 10 9 10 10 10 10 10 10 10 10 10 10 10 10 10 10 10 10 10 10 9 9
8 7 7 7 8 8 7 7 8 9 9 8 9 9 9 10 10 10 10 10 10 10 9 9 9 9 9 9 9 9 9 9 9 9 10 10 10 10 10 10 10 10 9 9 9 9 9 9 9
8 7 7 7 8 7 7 7 7 8 8 8 8 8 9 9 10 10 10 10 10 9 9 9 9 9 9 9 9 9 9 9 9 9 9 9 9 9 9 9 9 9 9 9 9 9 9 9 9
7 7 7 7 8 7 6 6 7 7 7 8 8 8 9 9 10 10 10 9 9 9 9 9 9 9 9 9 9 9 8 8 8 8 8 9 9 9 9 9 9 9 9 9 9 9 8 8 8
8 7 7 7 7 7 7 7 7 7 7 8 8 8 8 8 9 9 9 9 9 9 9 9 9 9 8 8 8 8 8 8 8 8 8 8 8 8 8 9 8 8 8 8 8 8 8 8 8
7 8 7 7 7 6 7 6 7 7 6 7 7 8 8 8 8 9 9 9 9 9 9 8 8 8 8 8 8 8 8 8 8 8 8 8 8 8 8 8 8 8 8 8 8 8 8 8 8
7 7 7 7 6 6 6 6 6 6 6 7 6 7 8 8 8 8 8 8 8 8 8 8 8 8 8 8 8 7 7 7 8 8 8 8 8 8 8 8 8 8 8 8 8 8 8 8 8
7 6 6 5 5 6 6 5 6 5 7 7 6 7 7 8 8 8 8 8 8 8 8 8 8 8 7 7 7 7 7 7 7 7 7 7 7 7 7 7 7 7 7 8 8 8 7 7 7
7 6 6 6 6 6 6 5 6 6 6 6 6 7 7 7 7 7 8 8 8 8 7 7 7 7 7 7 7 7 7 7 7 7 7 7 7 7 7 7 7 7 7 7 7 7 7 7 7
6 7 7 7 6 6 5 5 6 7 6 7 7 7 7 7 7 7 7 7 7 7 7 7 7 7 7 7 7 7 7 7 7 7 7 7 7 7 7 7 7 7 7 7 7 7 7 7 7
6 6 6 6 5 5 5 5 5 6 6 6 6 6 6 7 7 7 7 7 7 7 7 7 7 7 7 7 7 7 7 7 7 7 7 7 7 7 7 7 7 7 6 6 6 6 7 6 6
6 5 5 6 6 6 6 6 6 7 6 5 5 5 6 6 7 7 7 7 7 7 7 7 7 7 7 6 6 6 6 6 6 6 6 6 6 6 6 6 6 6 6 6 6 6 6 6 6
5 5 5 5 5 6 6 7 6 6 6 5 5 6 6 6 6 6 6 6 6 6 6 7 7 6 6 6 6 6 6 6 6 6 6 6 6 6 6 6 6 6 6 6 6 6 6 6 6
6 5 5 5 5 4 4 6 7 5 5 5 5 6 6 6 6 6 6 6 6 6 6 6 6 6 6 6 6 6 5 5 5 5 5 5 5 5 5 5 5 5 5 5 5 5 5 5 5
Wind_Speed
11 6 3 4 6 5 1 3 2 3 3 2 1 1 3 3 2 2 2 1 3 3 5 7 8 8 7 7 7 7 7 7 7 7 7 7 8 8 8 9 9 9 9 10 10 10 10 11 12
5 3 5 5 5 1 3 3 3 3 3 3 2 2 2 0 1 1 2 1 2 3 5 5 7 8 8 7 7 7 7 7 7 7 6 6 7 7 8 8 8 9 9 9 10 10 10 11 12
3 5 5 5 4 5 3 3 4 4 4 2 2 2 1 1 1 1 2 1 2 2 4 5 6 7 8 8 7 7 7 7 6 6 6 6 6 7 7 8 8 8 8 9 10 10 11 11 12
4 5 6 5 2 3 3 3 3 4 4 4 2 2 2 2 1 1 0 2 3 2 3 4 5 6 7 7 7 7 6 7 7 6 6 6 6 6 7 7 8 8 8 9 9 10 11 11 11
5 5 5 2 2 3 3 4 2 2 3 4 2 1 2 2 2 2 2 3 3 2 2 3 5 5 6 7 7 7 6 7 7 6 6 6 6 6 6 7 8 8 8 9 9 10 10 11 11
5 5 4 1 3 4 3 3 1 2 2 3 1 1 3 1 3 2 2 2 2 2 2 2 4 4 4 5 6 7 7 7 7 6 6 6 6 6 6 7 8 8 9 9 9 10 10 10 11
5 5 4 3 2 3 3 2 0 1 3 3 1 1 3 1 1 1 2 2 2 2 2 2 1 2 3 4 5 6 7 7 7 6 6 5 5 6 6 7 8 8 9 9 10 10 10 10 11
5 5 3 1 2 3 3 2 1 1 4 3 1 2 4 3 0 2 3 3 2 2 2 2 2 2 0 2 4 6 7 6 6 6 6 5 5 5 6 6 7 8 9 9 10 10 10 10 11
4 4 2 4 4 3 2 2 3 2 1 3 2 3 3 1 2 3 2 2 1 1 1 2 2 3 1 2 3 4 6 6 6 5 6 5 5 5 5 6 7 8 9 9 10 11 11 11 10
5 3 4 3 3 2 2 2 3 3 3 3 4 4 2 2 3 3 2 3 2 2 1 1 2 2 2 1 1 2 4 5 5 5 6 5 5 5 5 5 6 7 9 9 10 11 11 10 9
3 4 3 2 2 2 2 3 2 1 4 6 6 5 1 2 3 3 4 4 4 3 2 1 1 1 1 1 2 2 3 4 5 6 6 6 5 5 5 5 6 6 8 8 9 10 9 9 9
1 1 2 2 1 1 2 3 3 4 8 6 5 4 3 4 5 5 5 4 3 3 3 1 1 1 1 1 1 2 3 3 3 4 6 6 4 4 4 4 5 6 7 8 8 8 9 9 9
1 2 2 3 3 3 3 4 4 7 9 5 3 2 4 5 5 5 4 3 3 3 3 2 1 0 1 1 1 2 2 3 4 4 4 5 4 3 3 4 5 5 7 7 7 7 8 8 8
1 2 4 4 3 2 2 5 3 8 5 4 2 2 4 5 5 4 3 3 4 4 4 2 2 1 1 1 1 1 2 3 4 4 4 5 5 4 4 4 4 5 6 7 7 7 7 6 6
1 3 5 3 2 2 1 6 5 7 4 4 4 4 4 4 4 5 5 5 5 5 4 3 3 1 1 0 1 1 2 3 3 3 5 5 5 5 5 4 3 4 6 8 8 7 7 5 5
2 3 3 4 2 2 1 7 8 5 3 5 5 4 4 5 5 5 4 4 3 3 3 4 3 2 1 0 0 1 2 3 2 4 4 5 5 6 5 4 3 5 7 7 5 4 4 3 4
3 1 3 6 3 1 1 8 9 5 3 6 6 5 5 5 4 4 4 3 3 3 4 4 3 3 2 1 0 1 2 2 2 3 4 5 5 5 5 4 5 7 6 5 4 3 3 4 4
3 3 4 6 4 2 4 10 13 7 4 6 7 6 5 4 5 4 3 3 2 2 3 3 3 2 2 2 1 1 2 1 2 2 3 5 5 6 5 4 5 6 4 3 4 4 3 3 4
3 4 6 7 4 3 7 11 13 9 5 6 6 6 5 5 5 3 1 1 1 2 2 3 3 3 3 2 2 1 1 1 1 1 3 4 5 6 5 3 4 4 3 4 5 4 4 3 3
2 4 6 7 3 3 7 11 10 7 5 5 5 5 5 4 4 3 1 1 2 3 3 3 4 4 4 3 2 1 1 1 1 1 1 3 4 5 6 5 4 4 3 4 4 4 3 2 2
4 5 5 6 6 3 5 8 6 4 3 3 3 3 3 3 3 3 2 1 2 3 3 4 4 4 4 3 2 2 2 2 1 0 1 2 4 5 5 6 5 4 4 5 4 5 5 4 2
6 5 5 4 3 4 1 5 8 5 5 4 4 4 4 4 3 2 2 2 2 3 3 3 4 4 4 4 4 4 3 2 2 2 2 2 4 5 5 6 6 5 4 4 5 4 3 5 3
6 1 2 2 2 4 2 3 9 4 5 6 5 4 4 4 3 3 3 3 2 2 2 3 3 3 3 4 5 5 3 2 1 1 2 2 3 4 5 5 5 5 4 5 4 4 4 4 4
2 2 2 2 2 4 4 5 7 4 5 5 4 4 4 3 3 2 3 2 2 2 1 1 2 3 3 4 4 5 4 3 2 2 3 2 2 2 3 5 5 5 4 5 5 4 5 4 4
3 3 3 4 2 6 2 4 9 6 5 4 4 4 3 3 2 3 3 3 2 2 1 1 2 3 3 4 4 5 5 5 5 4 4 4 3 3 4 4 4 4 4 5 5 4 4 4 5
3 5 4 4 5 5 2 6 7 4 3 3 3 2 2 3 3 3 3 2 2 2 2 2 3 3 3 4 5 4 4 4 3 4 4 5 4 4 4 4 4 4 4 4 4 3 4 4 4
4 4 3 3 1 3 6 7 8 2 2 2 2 2 2 3 4 4 4 3 2 2 3 3 3 4 4 4 4 4 4 3 3 3 3 3 3 2 3 4 4 4 5 5 5 4 4 4 4
4 5 3 3 3 5 6 5 5 5 5 3 2 2 3 3 4 4 4 4 3 2 2 2 3 3 3 3 3 3 3 4 3 3 3 3 3 3 4 4 4 5 5 5 5 4 4 5 4
4 4 4 3 3 4 5 7 5 6 4 4 4 3 3 3 3 4 4 4 3 3 2 2 1 2 2 3 2 2 2 2 2 2 3 3 3 3 4 5 5 5 5 5 5 5 5 5 4
6 6 6 4 5 4 4 8 3 3 3 2 3 3 3 3 3 3 4 4 3 3 3 2 1 1 2 2 2 2 2 2 2 2 2 2 2 3 3 3 4 4 4 5 6 6 6 6 6
Wind_Direction
345 2 55 54 57 54 220 255 261 298 291 301 289 158 152 159 174 237 312 98 118 149 156 161 166 159 156 156 150 142 137 131 124 121 124 124 123 125 124 128 130 129 127 123 120 120 118 115 110
348 22 52 60 92 122 268 263 259 259 277 318 2 70 83 5 345 354 339 324 119 143 145 154 166 163 159 157 156 152 146 141 134 126 129 130 132 130 129 128 131 131 130 127 122 119 119 119 115
28 47 75 77 117 177 222 259 252 285 309 1 11 29 59 309 314 274 283 167 107 126 140 154 163 165 164 162 159 157 155 148 141 134 134 132 130 130 134 134 130 129 129 129 124 118 119 120 120
60 47 57 77 157 217 227 272 279 326 351 13 30 4 346 338 297 275 252 125 117 107 120 151 161 167 170 166 163 161 161 157 150 142 135 136 134 133 135 137 135 132 131 131 128 121 120 122 125
56 73 67 54 256 261 264 288 309 354 334 341 16 342 300 335 4 47 105 115 121 104 95 140 157 165 171 172 168 167 167 163 157 149 143 141 142 141 137 141 142 138 133 131 129 126 122 122 126
56 68 92 192 257 281 288 299 339 354 325 331 15 303 274 346 43 55 99 94 90 95 71 122 147 148 163 178 176 173 170 163 160 155 150 147 148 146 141 141 144 142 139 134 130 127 125 125 126
98 96 140 177 249 285 287 316 49 309 313 291 258 239 285 308 356 105 84 78 64 64 55 52 90 167 177 179 184 177 169 164 163 161 153 145 148 145 142 140 145 143 140 137 132 131 129 125 126
112 103 110 182 213 255 290 334 305 235 267 288 163 194 266 275 186 101 82 73 67 55 40 24 47 36 141 179 192 177 164 160 155 151 145 136 139 143 144 142 141 143 141 140 137 133 127 123 121
82 83 173 210 204 246 293 328 311 304 274 302 267 235 257 187 125 101 81 64 64 34 6 16 25 26 18 155 179 173 160 148 137 133 131 123 119 124 131 136 138 144 146 142 139 132 124 118 115
78 135 209 218 205 232 283 266 282 330 318 297 294 303 302 142 149 164 187 203 211 227 275 0 9 15 15 113 128 143 141 137 131 127 123 120 122 123 126 129 134 138 140 137 136 130 121 111 104
104 170 209 257 245 247 282 285 279 228 271 245 254 275 246 192 199 208 212 212 218 215 221 287 341 14 26 74 106 111 114 117 124 133 132 125 119 116 114 115 119 118 119 117 119 114 112 109 107
102 230 221 259 271 283 259 277 286 231 244 256 247 242 210 212 219 221 224 225 230 216 220 227 329 16 18 109 120 127 119 121 123 137 139 131 119 110 112 114 117 114 118 116 113 110 112 110 110
114 265 277 265 286 262 259 257 261 266 269 286 275 241 216 220 229 231 232 229 228 229 228 208 197 168 41 88 128 122 131 143 144 141 145 144 139 137 126 119 120 121 125 125 121 119 116 113 108
239 279 291 290 281 271 256 283 265 272 291 307 309 275 242 235 239 240 236 228 228 230 233 206 193 188 75 88 144 143 144 146 149 149 153 153 150 148 138 130 122 123 126 129 127 127 122 118 114
5 346 334 312 300 295 319 307 256 269 304 305 299 280 267 251 245 239 227 224 225 227 222 200 195 165 132 121 157 136 146 145 144 149 153 150 148 150 144 135 127 129 127 124 117 114 110 111 110
31 25 336 307 328 312 79 280 280 286 292 289 291 284 274 264 249 248 236 228 226 228 221 210 191 167 162 159 216 151 153 146 145 140 143 143 145 146 142 138 137 137 129 125 119 115 106 105 109
33 350 283 298 303 314 207 267 285 297 276 282 288 287 283 286 277 258 237 227 223 218 216 211 195 177 172 158 148 131 127 130 135 144 144 148 146 150 146 146 144 141 131 126 130 117 118 122 113
246 252 263 269 286 294 267 271 287 295 272 276 285 288 285 283 271 266 240 228 220 211 206 201 190 171 149 120 99 85 86 80 117 147 150 151 149 148 143 142 144 142 134 129 128 125 111 123 126
200 227 262 266 272 282 269 277 285 292 293 291 290 291 289 280 279 291 281 224 202 193 188 184 181 169 154 145 156 149 165 153 133 159 149 148 150 150 144 145 145 146 149 149 142 125 122 124 132
208 251 272 285 291 273 286 284 281 277 270 271 276 286 290 304 318 325 330 315 234 208 198 190 184 178 178 179 179 159 142 183 172 96 143 156 160 164 161 152 160 160 145 143 147 133 129 134 150
242 226 248 271 317 322 308 303 289 286 279 295 302 288 290 283 289 309 312 263 267 236 211 202 194 186 183 163 133 92 71 57 85 138 185 185 179 181 173 166 163 167 163 169 169 160 149 158 177
258 236 231 261 309 296 357 301 293 290 305 304 305 308 302 295 288 299 301 297 271 249 220 208 199 189 183 166 162 159 174 197 213 199 199 196 191 188 182 173 169 170 169 173 178 172 163 155 169
229 251 221 249 233 287 264 239 286 311 292 287 285 292 294 295 286 289 284 275 282 261 222 206 198 195 190 188 186 186 199 206 183 176 186 197 201 196 187 180 174 176 176 178 176 169 172 170 173
178 43 36 50 83 274 228 197 278 251 242 270 281 300 302 305 306 306 298 308 333 341 338 212 194 206 201 200 196 198 201 193 177 194 204 206 206 205 199 189 185 185 182 183 184 178 180 185 177
93 80 5 341 322 254 209 210 252 248 237 235 253 279 312 327 336 340 334 326 328 324 303 249 214 217 211 209 210 209 208 198 201 204 206 208 204 215 213 202 194 192 190 183 177 179 186 188 185
197 162 175 232 247 280 271 239 255 253 255 249 253 266 332 346 340 323 308 300 303 293 272 247 231 227 215 214 218 213 206 204 212 214 213 213 216 214 203 196 196 194 189 186 180 184 193 190 194
161 202 188 168 233 272 266 277 298 257 273 269 285 317 338 334 334 330 319 309 304 299 271 248 236 234 225 222 221 215 209 210 212 214 206 211 217 210 199 195 194 192 190 189 184 192 193 187 192
176 156 123 168 222 262 278 266 252 248 247 251 263 286 300 322 332 335 332 322 312 299 290 265 235 231 224 215 217 225 220 219 211 198 203 204 203 194 198 199 197 196 197 193 189 190 185 182 190
164 172 174 179 193 208 268 268 229 218 223 236 250 263 277 303 313 320 321 321 321 331 335 325 276 242 225 213 216 220 221 214 200 202 210 204 198 193 200 202 199 197 197 194 190 193 183 183 185
202 196 170 191 228 210 237 268 277 208 224 235 254 273 294 306 312 318 322 332 340 342 339 332 328 287 251 230 219 220 221 207 205 218 221 204 203 203 204 200 197 198 196 192 191 193 190 187 191
Height
1496 1497 1498 1501 1506 1520 1522 1517 1513 1511 1508 1507 1506 1506 1507 1509 1511 1514 1508 1506 1506 1507 1509 1510 1511 1513 1514 1515 1516 1517 1518 1519 1519 1520 1521 1522 1523 1525 1526 1527 1528 1528 1530 1531 1532 1533 1534 1536 1537
1497 1498 1500 1501 1514 1526 1523 1516 1513 1509 1507 1506 1506 1506 1506 1507 1507 1507 1506 1506 1506 1507 1508 1509 1511 1512 1513 1514 1515 1516 1517 1518 1519 1520 1521 1522 1523 1524 1525 1526 1527 1528 1529 1531 1532 1533 1534 1536 1537
1497 1498 1501 1506 1519 1523 1517 1512 1511 1508 1507 1506 1506 1506 1506 1507 1507 1506 1506 1506 1506 1507 1508 1509 1510 1511 1512 1513 1514 1515 1516 1517 1518 1519 1520 1521 1523 1524 1525 1526 1527 1528 1529 1531 1532 1533 1534 1536 1537
1498 1500 1503 1513 1518 1517 1514 1511 1509 1508 1506 1506 1506 1507 1507 1508 1507 1506 1506 1506 1506 1507 1507 1508 1509 1510 1511 1512 1513 1514 1515 1516 1517 1518 1519 1521 1522 1523 1524 1525 1527 1528 1529 1530 1532 1533 1534 1535 1537
1498 1500 1511 1520 1517 1514 1512 1510 1509 1508 1508 1507 1507 1507 1507 1507 1506 1505 1505 1505 1506 1506 1507 1507 1508 1509 1510 1511 1512 1513 1514 1515 1516 1517 1518 1520 1521 1522 1524 1525 1526 1527 1529 1530 1531 1533 1534 1535 1537
1500 1503 1519 1522 1518 1513 1511 1509 1509 1508 1508 1507 1507 1507 1506 1506 1505 1505 1505 1505 1506 1506 1506 1506 1507 1508 1508 1510 1511 1512 1513 1514 1515 1516 1517 1519 1520 1521 1523 1524 1525 1527 1528 1529 1531 1532 1534 1535 1536
1502 1510 1518 1518 1518 1514 1510 1509 1509 1508 1508 1508 1507 1507 1505 1505 1505 1505 1505 1505 1505 1505 1505 1505 1506 1507 1507 1508 1509 1510 1511 1512 1513 1515 1516 1517 1519 1520 1522 1523 1525 1526 1527 1528 1530 1532 1533 1534 1536
1502 1510 1516 1518 1517 1514 1510 1509 1508 1508 1507 1507 1507 1506 1505 1504 1504 1504 1504 1504 1504 1504 1504 1504 1504 1504 1505 1506 1507 1509 1510 1511 1512 1513 1515 1516 1518 1519 1521 1522 1524 1525 1526 1528 1529 1531 1533 1534 1536
1503 1514 1518 1516 1514 1512 1509 1508 1508 1507 1506 1506 1505 1505 1504 1503 1503 1503 1502 1502 1502 1502 1502 1502 1502 1503 1503 1504 1505 1507 1508 1509 1510 1512 1513 1515 1516 1518 1520 1521 1523 1524 1525 1527 1529 1530 1532 1534 1535
1505 1515 1513 1511 1510 1509 1508 1508 1507 1506 1505 1504 1503 1503 1502 1502 1501 1500 1500 1499 1500 1500 1500 1500 1500 1501 1501 1502 1503 1504 1505 1507 1508 1510 1511 1513 1515 1516 1518 1520 1521 1523 1524 1526 1528 1529 1531 1533 1535
1507 1511 1509 1508 1508 1508 1507 1507 1506 1505 1504 1502 1501 1500 1499 1499 1499 1498 1498 1498 1498 1498 1499 1499 1499 1499 1499 1500 1501 1502 1503 1505 1506 1508 1510 1512 1513 1515 1516 1518 1520 1522 1523 1525 1527 1528 1530 1532 1534
1508 1509 1508 1507 1507 1507 1506 1505 1505 1503 1501 1500 1499 1498 1497 1497 1496 1496 1496 1496 1496 1497 1497 1496 1497 1497 1498 1498 1499 1500 1501 1503 1504 1506 1508 1510 1511 1513 1515 1517 1518 1520 1522 1524 1525 1527 1529 1531 1533
1508 1508 1507 1506 1506 1505 1504 1504 1503 1500 1498 1497 1496 1495 1494 1494 1494 1494 1495 1495 1495 1494 1494 1494 1495 1495 1496 1496 1497 1498 1500 1501 1502 1504 1506 1508 1510 1511 1513 1515 1517 1519 1521 1522 1524 1526 1528 1530 1532
1508 1507 1507 1505 1504 1503 1503 1502 1501 1496 1496 1495 1493 1492 1492 1492 1492 1491 1491 1491 1492 1492 1492 1492 1493 1493 1494 1495 1495 1497 1498 1499 1501 1502 1504 1506 1508 1510 1512 1513 1515 1517 1519 1521 1523 1525 1526 1528 1530
1508 1508 1506 1504 1503 1503 1503 1501 1498 1494 1494 1492 1491 1491 1490 1490 1489 1489 1488 1489 1489 1490 1490 1490 1491 1492 1492 1493 1494 1495 1496 1497 1499 1500 1502 1504 1506 1508 1510 1512 1514 1516 1518 1520 1521 1523 1525 1527 1529
1508 1511 1511 1505 1503 1502 1506 1503 1495 1493 1492 1490 1489 1488 1487 1487 1486 1486 1486 1486 1487 1487 1487 1488 1489 1490 1490 1491 1492 1493 1494 1496 1497 1499 1500 1502 1504 1507 1508 1510 1512 1514 1516 1518 1520 1521 1523 1525 1527
1513 1516 1513 1508 1503 1503 1504 1501 1493 1491 1490 1488 1487 1486 1484 1484 1484 1484 1484 1484 1484 1484 1485 1486 1487 1487 1488 1489 1491 1492 1493 1494 1495 1497 1498 1500 1502 1504 1506 1509 1511 1512 1514 1516 1518 1519 1522 1524 1526
1514 1515 1513 1510 1504 1504 1504 1499 1491 1489 1489 1486 1484 1483 1482 1481 1481 1481 1482 1482 1482 1482 1483 1484 1484 1485 1486 1487 1489 1490 1491 1492 1494 1495 1497 1498 1500 1502 1504 1506 1509 1510 1512 1514 1516 1518 1520 1522 1524
1509 1511 1511 1507 1503 1504 1502 1497 1490 1486 1486 1484 1481 1480 1479 1478 1479 1479 1479 1479 1480 1480 1481 1481 1482 1483 1484 1484 1486 1487 1488 1490 1491 1493 1494 1496 1498 1500 1502 1504 1506 1508 1510 1512 1514 1516 1517 1519 1522
1509 1510 1509 1505 1502 1502 1500 1495 1487 1484 1483 1481 1479 1477 1477 1477 1477 1477 1477 1478 1478 1478 1478 1479 1480 1481 1482 1482 1484 1486 1487 1488 1489 1491 1492 1494 1495 1497 1499 1501 1503 1506 1508 1510 1512 1514 1515 1517 1519
1507 1508 1506 1505 1502 1501 1501 1494 1486 1482 1480 1479 1477 1476 1475 1475 1475 1475 1475 1476 1476 1476 1476 1477 1478 1479 1480 1481 1482 1483 1485 1486 1486 1488 1489 1491 1493 1495 1496 1499 1501 1503 1505 1507 1509 1511 1513 1514 1517
1506 1502 1503 1503 1506 1506 1504 1503 1488 1483 1480 1477 1476 1475 1474 1474 1474 1473 1473 1473 1474 1474 1474 1475 1476 1477 1478 1479 1479 1480 1481 1482 1483 1485 1487 1489 1490 1492 1494 1496 1498 1500 1502 1505 1506 1508 1510 1512 1514
1501 1500 1502 1502 1504 1507 1505 1506 1492 1484 1481 1476 1475 1474 1473 1472 1472 1472 1472 1471 1472 1472 1472 1473 1473 1474 1475 1476 1477 1478 1479 1480 1482 1483 1485 1486 1487 1489 1491 1493 1495 1497 1499 1501 1503 1505 1507 1509 1511
1499 1502 1503 1506 1507 1506 1501 1505 1493 1485 1478 1475 1474 1472 1471 1471 1471 1471 1470 1470 1470 1470 1471 1470 1471 1471 1472 1473 1474 1475 1476 1477 1478 1480 1482 1483 1484 1486 1488 1490 1492 1494 1496 1498 1500 1502 1504 1506 1508
1499 1505 1510 1507 1510 1503 1498 1500 1489 1476 1474 1473 1473 1472 1471 1470 1470 1469 1468 1468 1468 1468 1468 1468 1468 1468 1469 1470 1471 1472 1473 1474 1475 1477 1479 1480 1481 1482 1484 1486 1488 1490 1492 1494 1496 1498 1500 1502 1504
1499 1501 1507 1507 1506 1502 1498 1496 1481 1473 1472 1471 1471 1471 1470 1469 1469 1468 1467 1467 1466 1466 1465 1466 1465 1465 1466 1467 1468 1469 1470 1471 1473 1474 1475 1477 1478 1479 1481 1483 1485 1487 1488 1490 1492 1494 1496 1498 1500
1498 1500 1499 1505 1507 1506 1498 1490 1479 1471 1471 1470 1470 1469 1469 1468 1467 1467 1466 1465 1464 1464 1463 1463 1463 1463 1463 1464 1465 1466 1467 1468 1469 1471 1472 1473 1475 1476 1478 1479 1481 1483 1485 1486 1488 1490 1492 1494 1496
1493 1496 1503 1503 1501 1499 1492 1489 1480 1471 1470 1470 1470 1469 1468 1468 1467 1466 1465 1464 1463 1463 1462 1461 1461 1461 1461 1462 1462 1463 1464 1465 1466 1467 1468 1470 1471 1473 1474 1476 1477 1479 1481 1483 1485 1486 1488 1490 1492
1494 1496 1496 1500 1500 1499 1496 1483 1470 1468 1468 1469 1468 1468 1467 1467 1466 1465 1464 1463 1462 1461 1460 1459 1459 1459 1459 1459 1460 1460 1461 1462 1463 1464 1465 1466 1468 1469 1471 1472 1474 1475 1477 1479 1480 1482 1484 1486 1488
1487 1489 1493 1496 1496 1499 1497 1483 1465 1466 1466 1467 1467 1467 1467 1466 1465 1464 1463 1462 1460 1459 1458 1458 1458 1458 1457 1457 1457 1458 1459 1459 1460 1461 1462 1463 1465 1466 1467 1469 1470 1472 1473 1475 1477 1478 1480 1482 1484